• Join FlightAware (Why Join?)
  • Login
  • US Flag 
01:00PM EST


 

Airport Tracker/Info


-or-


 

Live Flight TrackerFlight Track Log ✈ SWA378 ✈ 01-May-2013 ✈ KSJC - KLAX

Flight Track Log - Related Links

Times and Time Zones

All times are in EDT time to prevent confusion due to time zone crossing. See the SWA378 flight status page for this flight to view local times or setup timezone preferences in your user account.

Time Position Orientation Groundspeed Altitude Reporting Facility
EDT Latitude Longitude Course Direction KTS MPH feet Rate Location/Type
11:37AM 37.3833 -121.9500 338° Northwest 150 173 1,500  Level Northern Cal TRACON
11:38AM 37.4167 -121.9667 338° Northwest 193 222 4,000 1,800 Climbing Northern Cal TRACON
11:39AM 37.4167 -121.9000 90° East 248 285 5,100 700 Climbing Northern Cal TRACON
11:40AM 37.3667 -121.8333 133° Southeast 235 270 5,400 944 Climbing Northern Cal TRACON
11:40AM 37.3406 -121.8006 135° Southeast 247 284 6,800 2,345 Climbing Oakland Center
11:41AM 37.2708 -121.7219 138° Southeast 281 323 9,700 3,073 Climbing Oakland Center
11:43AM 37.2069 -121.6472 137° Southeast 310 357 13,100 3,122 Climbing Oakland Center
11:44AM 37.1328 -121.5628 138° Southeast 357 411 16,100 3,122 Climbing Oakland Center
11:45AM 37.0539 -121.4800 140° Southeast 375 432 19,500 3,000 Climbing Oakland Center
11:46AM 36.9725 -121.3878 138° Southeast 391 450 22,200 2,585 Climbing Oakland Center
11:47AM 36.8853 -121.2942 139° Southeast 411 473 24,800 2,341 Climbing Oakland Center
11:48AM 36.7967 -121.1983 139° Southeast 430 495 27,000 2,293 Climbing Oakland Center
11:49AM 36.6819 -121.0767 140° Southeast 448 516 29,500 2,098 Climbing Oakland Center
11:50AM 36.5844 -120.9700 139° Southeast 463 533 31,300 2,016 Climbing Oakland Center
11:51AM 36.4847 -120.8636 139° Southeast 470 541 33,600 2,098 Climbing Oakland Center
11:52AM 36.3889 -120.7564 138° Southeast 463 533 35,600 1,756 Climbing Oakland Center
11:53AM 36.2919 -120.6522 139° Southeast 460 529 37,200 1,475 Climbing Oakland Center
11:54AM 36.1928 -120.5508 140° Southeast 460 529 38,600 878 Climbing Oakland Center
11:55AM 36.0944 -120.4472 140° Southeast 464 534 39,000 195 Climbing Oakland Center
11:56AM 35.9969 -120.3436 139° Southeast 461 531 39,000  Level Oakland Center
11:57AM 35.8989 -120.2419 140° Southeast 460 529 39,000  Level Oakland Center
11:58AM 35.8019 -120.1394 139° Southeast 458 527 39,000  Level Oakland Center
11:59AM 35.7031 -120.0353 139° Southeast 462 532 39,000  Level Oakland Center
12:00PM 35.5808 -119.9189 142° Southeast 464 534 39,000  Level Oakland Center
12:01PM 35.4750 -119.8286 145° Southeast 460 529 39,000  Level Oakland Center
12:02PM 35.3700 -119.7392 145° Southeast 457 526 39,000  Level Oakland Center
12:02PM 35.3494 -119.7214 145° Southeast 459 528 39,000 -701 Level Los Angeles Center
12:03PM 35.2447 -119.6317 145° Southeast 458 527 38,100 -1,742 Descending Los Angeles Center
12:04PM 35.1394 -119.5417 145° Southeast 459 528 35,400 -2,903 Descending Los Angeles Center
12:05PM 35.0344 -119.4508 145° Southeast 462 532 32,100 -3,097 Descending Los Angeles Center
12:06PM 34.9067 -119.3433 145° Southeast 465 535 29,000 -2,613 Descending Los Angeles Center
12:07PM 34.8050 -119.2561 145° Southeast 449 517 26,700 -2,226 Descending Los Angeles Center
12:08PM 34.7078 -119.1739 145° Southeast 429 494 24,400 -2,226 Descending Los Angeles Center
12:09PM 34.6058 -119.0897 146° Southeast 412 474 22,100 -2,160 Descending Los Angeles Center
12:10PM 34.5142 -119.0136 146° Southeast 394 453 19,900 -2,016 Descending Los Angeles Center
12:12PM 34.4264 -118.9403 145° Southeast 381 438 17,900 -1,984 Descending Los Angeles Center
12:13PM 34.3400 -118.8744 148° Southeast 365 420 15,800 -2,081 Descending Los Angeles Center
12:14PM 34.2431 -118.8392 163° South 366 421 13,600 -2,177 Descending Los Angeles Center
12:15PM 34.1289 -118.7975 163° South 358 412 11,300 -1,742 Descending Los Angeles Center
12:16PM 34.0447 -118.7508 155° Southeast 343 395 10,000 -629 Descending Los Angeles Center
12:17PM 34.0292 -118.6539 101° East 299 344 10,000 -532 Level Los Angeles Center
12:18PM 34.0189 -118.5533 97° East 285 328 8,900 -1,161 Descending Los Angeles Center
12:19PM 34.0108 -118.4658 96° East 267 307 7,600 -1,210 Descending Los Angeles Center
12:20PM 34.0197 -118.3872 82° East 260 299 6,400 -1,403 Descending Los Angeles Center
12:21PM 34.0261 -118.2983 85° East 264 304 4,700 -1,548 Descending Los Angeles Center
12:22PM 34.0350 -118.1922 84° East 265 305 3,200 -1,065 Descending Los Angeles Center
12:23PM 34.0089 -118.1325 118° Southeast 244 281 2,500 -484 Descending Los Angeles Center
12:24PM 33.9744 -118.1867 233° Southwest 220 253 2,200 -145 Descending Los Angeles Center
12:25PM 33.9681 -118.2492 263° West 194 223 2,200 -242 Level Los Angeles Center
12:26PM 33.9631 -118.3064 264° West 184 212 1,700 -677 Descending Los Angeles Center
12:27PM 33.9569 -118.3622 262° West 157 181 800 -774 Descending Los Angeles Center
12:28PM 33.9522 -118.4072 263° West 145 167 100 -677 Descending Los Angeles Center
12:30PM 33.9425 -118.4081 231° Southwest  Level Estimated